[[{"header":{"parameterUnit":"m.s-1","parameterCategory":1,"la1":30.2991,"la2":30.254,"lo1":-89.0895,"lo2":-89.0444,"dy":0.0017,"dx":0.0017,"nx":28,"ny":28,"refTime":"2024-05-10T03:00:00:Z","depth":0,"parameterNumber":2,"parameterNumberName":"U-component_of_WINDS"},"data":[0,0,0,0,0,0,0,0,0,0,0,0,0,0,0,0,0,0,0,0,0,0,0,0,0,0,0,0,0,0,0,0,0,0,0,0,0,0,0,0,0,0,0,0,0,0,0,0,0,0,0,0,0,0,0,0,0,0,2.8409,2.841,0,2.8462,2.8463,2.8464,2.8436,2.8435,2.8433,2.8432,2.8488,2.849,2.8493,0,0,0,0,0,0,0,0,0,0,0,0,0,2.8285,2.8287,2.8409,2.841,2.8411,2.8462,2.8463,2.8464,2.8437,2.8435,2.8433,2.8431,2.8487,2.849,2.8493,0,0,0,0,0,0,0,0,0,0,0,0,0,2.8339,2.8288,2.8409,2.8403,2.8403,2.8462,2.8463,2.8464,2.8437,2.8435,2.8433,2.8431,2.8486,2.849,2.8494,2.8562,0,0,2.8507,2.8508,0,0,0,0,0,0,0,0,2.8336,2.8343,2.8403,2.8404,2.8404,2.844,2.8439,2.8497,2.8437,2.8424,2.8432,2.843,2.8474,2.8479,2.8493,2.8565,2.8567,2.8507,2.851,2.8511,2.8513,0,0,0,0,0,0,0,2.8332,2.8341,2.843,2.8404,2.8405,2.8398,2.8403,2.845,2.846,2.8425,2.8423,2.843,2.8473,2.8489,2.8495,2.8568,2.8507,2.8511,2.8513,2.8515,2.8696,2.8698,0,0,0,0,0,0,2.8328,2.8338,2.8429,2.8432,2.8364,2.8402,2.8408,2.8431,2.846,2.8462,2.8432,2.8428,2.8483,2.849,2.8496,2.8576,2.8511,2.8515,2.8518,2.8694,2.8696,2.8699,0,0,0,0,0,0,2.8326,2.8337,2.8426,2.8384,2.8395,2.8406,2.8432,2.8433,2.8449,2.8464,2.8466,2.8446,2.8482,2.849,2.8545,2.8578,2.8517,2.8521,2.8691,2.8694,2.8698,2.8738,0,0,0,0,0,0,2.8322,2.8336,2.8362,2.8385,2.8398,2.8475,2.8434,2.8436,2.8456,2.8452,2.8478,2.8481,2.8481,2.8539,2.855,2.8583,2.8524,2.8688,2.8693,2.8697,2.8734,2.8743,2.875,0,0,0,0,0,2.8318,2.8372,2.8363,2.8374,2.843,2.8476,2.8484,2.8482,2.8459,2.8485,2.8495,2.848,2.8573,2.8545,2.8556,2.8591,2.8686,2.8691,2.8696,2.873,2.8741,2.875,0,0,0,0,0,0,2.8353,2.8375,2.8366,2.8428,2.8451,2.8472,2.8504,2.8494,2.8524,2.8519,2.8516,2.8523,2.8579,2.8591,2.8559,2.8658,2.8626,2.8634,2.8648,2.8658,2.8666,2.8661,2.8528,0,0,0,0,0,2.8368,2.8403,2.8421,2.8474,2.8486,2.8493,2.8514,2.8511,2.8534,2.8543,2.8557,2.858,2.8615,2.8637,2.867,2.8736,2.8741,2.8766,2.8774,2.878,2.8786,2.8821,2.8832,2.8716,2.8716,2.8716,0,0,2.8399,2.8415,2.8438,2.8482,2.8499,2.8535,2.8502,2.8542,2.8569,2.8549,2.8601,2.8613,2.8638,2.8699,2.8726,2.871,2.882,2.8787,2.8792,2.8795,2.8827,2.8838,2.8848,2.8719,2.8719,2.8718,0,0,2.8474,2.849,2.8536,2.8554,2.8579,2.8584,2.8595,2.8618,2.8624,2.8676,2.8662,2.8694,2.8754,2.8772,2.879,2.8871,2.8858,2.8882,2.8923,2.8957,2.8966,2.8974,2.9002,2.9012,2.8889,2.8889,2.8889,0,2.8509,2.8563,2.8561,2.8602,2.8622,2.8605,2.8651,2.8669,2.8704,2.8718,2.87,2.8773,2.879,2.8853,2.8873,2.8888,2.89,2.8878,2.8965,2.8973,2.898,2.9007,2.9017,2.8891,2.8891,2.8891,2.8891,0,2.8605,2.8643,2.8677,2.871,2.8734,2.8777,2.8782,2.8806,2.8801,2.8807,2.886,2.8879,2.8915,2.893,2.8926,2.8993,2.8982,2.8965,2.8932,2.8994,2.9019,2.9029,2.8895,2.8894,2.8893,2.8893,0,0,2.8702,2.8734,2.8746,2.8761,2.8788,2.8817,2.886,2.8894,2.8914,2.8939,2.8974,2.9025,2.9008,2.9028,2.9026,2.9056,2.9117,2.9035,2.9035,2.9048,2.919,2.9202,2.9214,2.911,2.9112,2.9113,2.9188,0,2.8778,2.8852,2.8851,2.8919,2.8953,2.8938,2.8975,2.8996,2.9003,2.9034,2.9042,2.9077,2.9054,2.9065,2.9094,2.9104,2.9146,2.9099,2.9141,2.9143,2.9133,2.9227,2.9239,2.9309,2.9197,2.9199,2.92,0,2.8875,2.8903,2.8974,2.8995,2.901,2.9043,2.9073,2.9103,2.9126,2.9129,2.9151,2.9144,2.9187,2.9154,2.9213,2.9181,2.9199,2.9206,2.9209,2.9211,2.9174,2.923,2.9331,2.9341,2.9216,2.9214,2.9213,0,2.8937,2.8992,2.9041,2.9055,2.9081,2.9104,2.9117,2.9137,2.9158,2.9185,2.9198,2.923,2.9247,2.9272,2.9274,2.925,2.9333,2.9301,2.9336,2.9336,2.9353,2.9351,2.9456,2.9367,2.9367,2.9367,2.9367,0,2.902,2.9064,2.9069,2.91,2.9148,2.9147,2.9195,2.9205,2.9224,2.9256,2.9246,2.9276,2.9277,2.9308,2.9311,2.9358,2.9366,2.937,2.9369,2.9369,2.9369,2.938,2.9374,2.937,2.9369,2.9369,2.9368,0,2.9097,2.9102,2.9155,2.9175,2.9181,2.9216,2.9233,2.9262,2.9269,2.9309,2.9318,2.9328,2.9364,2.9369,2.9411,2.9412,2.9469,2.9465,2.9461,2.9459,2.9494,2.949,2.9608,2.9622,2.9526,2.9527,2.9527,0,2.9149,2.9182,2.9206,2.9226,2.9239,2.9272,2.9292,2.9293,2.9314,2.9343,2.9368,2.9402,2.943,2.9488,2.9499,2.9531,2.9526,2.9565,2.953,2.9529,2.9524,2.9521,2.9524,2.9571,2.9572,2.9573,2.9574,0,2.9239,2.924,2.927,2.93,2.9325,2.9349,2.9371,2.9389,2.9392,2.9417,2.9453,2.9474,2.9516,2.955,2.9582,2.9594,2.9584,2.9585,2.9594,2.9594,2.9589,2.959,2.9477,2.9582,2.9581,2.958,2.958,2.958,2.9304,2.9332,2.9353,2.9386,2.9403,2.9424,2.9452,2.9461,2.9491,2.9525,2.9524,2.9563,2.9585,2.9626,2.964,2.9671,2.9658,2.9673,2.9676,2.9679,2.9681,2.9586,2.9677,2.9677,2.9677,2.9677,2.9676,0,2.9393,2.9405,2.9436,2.9467,2.9493,2.9482,2.9506,2.9528,2.9563,2.9583,2.961,2.9651,2.9684,2.9698,2.973,2.9752,2.9748,2.976,2.9757,2.976,2.9692,2.9679,2.9762,2.9762,2.9762,2.9762,2.9762,2.9762,2.9442,2.9488,2.9492,2.9547,2.9559,2.9597,2.9612,2.9631,2.9647,2.9693,2.972,2.9729,2.9746,2.978,2.9809,2.9812,2.9824,2.9838,2.9839,2.9774,2.9765,2.9757,2.9745,2.9841,2.9841,2.9904,2.9905,2.9905]},{"header":{"parameterUnit":"m.s-1","parameterCategory":1,"la1":30.2991,"la2":30.254,"lo1":-89.0895,"lo2":-89.0444,"dy":0.0017,"dx":0.0017,"nx":28,"ny":28,"refTime":"2024-05-10T03:00:00:Z","depth":0,"parameterNumber":3,"parameterNumberName":"V-component_of_WINDS"},"data":[0,0,0,0,0,0,0,0,0,0,0,0,0,0,0,0,0,0,0,0,0,0,0,0,0,0,0,0,0,0,0,0,0,0,0,0,0,0,0,0,0,0,0,0,0,0,0,0,0,0,0,0,0,0,0,0,0,0,3.1925,3.1927,0,3.2073,3.2075,3.2077,3.2088,3.2087,3.2085,3.2083,3.2234,3.224,3.2245,0,0,0,0,0,0,0,0,0,0,0,0,0,3.1651,3.1656,3.1925,3.1927,3.1929,3.2073,3.2075,3.2077,3.2088,3.2086,3.2085,3.2083,3.2233,3.2239,3.2246,0,0,0,0,0,0,0,0,0,0,0,0,0,3.1782,3.1658,3.1925,3.1952,3.1956,3.2073,3.2075,3.2078,3.2089,3.2086,3.2084,3.2082,3.223,3.2238,3.2247,3.2346,0,0,3.2272,3.2276,0,0,0,0,0,0,0,0,3.1774,3.1792,3.1946,3.195,3.1955,3.206,3.2034,3.2168,3.2089,3.2038,3.2083,3.2081,3.2178,3.2191,3.2224,3.2353,3.236,3.2273,3.2278,3.2281,3.2284,0,0,0,0,0,0,0,3.1765,3.1786,3.1984,3.1948,3.1954,3.1956,3.1972,3.2059,3.212,3.2043,3.2044,3.2061,3.218,3.2216,3.2227,3.2362,3.2273,3.228,3.2285,3.2288,3.2582,3.2585,0,0,0,0,0,0,3.1751,3.1778,3.1979,3.1988,3.1857,3.1963,3.1981,3.2028,3.2119,3.2131,3.2063,3.2061,3.2203,3.2218,3.2233,3.2357,3.2281,3.2289,3.2294,3.258,3.2583,3.2586,0,0,0,0,0,0,3.1745,3.1769,3.1973,3.1883,3.191,3.1971,3.2024,3.2033,3.2068,3.2135,3.2145,3.2088,3.2201,3.2221,3.2318,3.2362,3.2293,3.23,3.2576,3.2581,3.2584,3.2604,0,0,0,0,0,0,3.1737,3.1767,3.1806,3.1884,3.1914,3.2056,3.2026,3.2037,3.2083,3.2082,3.2161,3.2172,3.2201,3.2306,3.2327,3.2372,3.2307,3.2573,3.2578,3.2583,3.26,3.2609,3.2616,0,0,0,0,0,3.1728,3.1805,3.1807,3.1832,3.1964,3.2059,3.2076,3.2108,3.2086,3.2126,3.2168,3.217,3.2354,3.2316,3.2339,3.2388,3.257,3.2577,3.2583,3.2597,3.2607,3.2616,0,0,0,0,0,0,3.1729,3.1816,3.1819,3.1924,3.1984,3.2061,3.2111,3.2118,3.2185,3.2181,3.2218,3.2235,3.2332,3.2369,3.2326,3.249,3.2459,3.2471,3.2462,3.2473,3.248,3.247,3.2314,0,0,0,0,0,3.1742,3.1812,3.1883,3.1969,3.1999,3.205,3.2092,3.2112,3.2175,3.22,3.225,3.2311,3.2383,3.243,3.2499,3.2605,3.2623,3.265,3.2658,3.2664,3.2674,3.2734,3.2747,3.2607,3.2607,3.2607,0,0,3.1768,3.1824,3.1866,3.1971,3.2019,3.2091,3.2071,3.2148,3.2201,3.2212,3.2308,3.2346,3.2417,3.2519,3.2567,3.2553,3.2717,3.2673,3.2677,3.2684,3.2742,3.2755,3.2767,3.2611,3.2611,3.261,0,0,3.1854,3.1903,3.1981,3.203,3.2104,3.2137,3.2156,3.2232,3.2258,3.2354,3.2364,3.2428,3.255,3.2601,3.2643,3.2748,3.2752,3.2769,3.2812,3.287,3.2881,3.2891,3.293,3.2943,3.2778,3.2778,3.2778,0,3.1878,3.1987,3.2019,3.2096,3.2142,3.2155,3.2234,3.228,3.2373,3.2405,3.2388,3.2543,3.2591,3.2706,3.2732,3.2765,3.2788,3.2761,3.2877,3.2887,3.2897,3.2934,3.2949,3.278,3.278,3.278,3.278,0,3.2013,3.2089,3.2142,3.2232,3.2284,3.2361,3.2406,3.2454,3.2469,3.2504,3.2602,3.2661,3.2743,3.2772,3.2786,3.2889,3.2879,3.2869,3.284,3.2911,3.2947,3.2962,3.2783,3.2782,3.2782,3.2781,0,0,3.2105,3.2212,3.2231,3.2273,3.2356,3.2415,3.2492,3.2573,3.2615,3.2678,3.2745,3.2849,3.284,3.2888,3.2908,3.2959,3.304,3.2943,3.2946,3.2961,3.3158,3.3166,3.3182,3.3043,3.3046,3.3048,3.3153,0,3.2201,3.2341,3.2372,3.2493,3.2563,3.2577,3.2645,3.2703,3.2738,3.2803,3.2841,3.2914,3.2897,3.2926,3.2977,3.302,3.3081,3.3012,3.3106,3.3109,3.309,3.3201,3.3209,3.3306,3.3167,3.3169,3.3171,0,3.2332,3.2399,3.2527,3.2601,3.2632,3.2693,3.277,3.2831,3.2898,3.2919,3.2972,3.2988,3.307,3.3036,3.3149,3.3102,3.3142,3.3169,3.3174,3.3185,3.3146,3.3216,3.3337,3.3352,3.3193,3.3192,3.319,0,3.2387,3.251,3.2602,3.2637,3.2726,3.2768,3.2807,3.2871,3.2918,3.2985,3.3016,3.3091,3.3133,3.3191,3.3227,3.3198,3.3339,3.3307,3.336,3.3359,3.339,3.3388,3.352,3.3413,3.3413,3.3413,3.3412,0,3.2492,3.257,3.2629,3.2686,3.2773,3.2809,3.2895,3.2933,3.299,3.3055,3.3071,3.3131,3.3174,3.3241,3.3269,3.336,3.3378,3.3399,3.3405,3.3398,3.3396,3.3426,3.3421,3.3417,3.3416,3.3415,3.3414,0,3.2569,3.2612,3.2714,3.279,3.281,3.2872,3.2937,3.2993,3.3028,3.311,3.3131,3.3187,3.3266,3.3307,3.3406,3.3425,3.3527,3.3529,3.3505,3.3509,3.356,3.3555,3.3717,3.3741,3.3617,3.3618,3.3619,0,3.2634,3.2695,3.2777,3.2822,3.2862,3.2934,3.2982,3.3019,3.3068,3.3149,3.3196,3.3276,3.3342,3.3468,3.3517,3.3593,3.3598,3.365,3.361,3.3601,3.3601,3.3597,3.3604,3.3657,3.3658,3.3659,3.366,0,3.2745,3.2763,3.2832,3.2909,3.2966,3.3028,3.3089,3.3125,3.3172,3.3227,3.3308,3.336,3.3461,3.3541,3.3621,3.3661,3.3669,3.3672,3.3689,3.3683,3.3667,3.3678,3.3526,3.3669,3.3668,3.3667,3.3667,3.3666,3.2819,3.2874,3.2941,3.3018,3.3068,3.3125,3.3182,3.3224,3.3293,3.3379,3.3396,3.3483,3.3548,3.3656,3.3699,3.3767,3.3756,3.378,3.3786,3.3792,3.3795,3.3655,3.3781,3.3781,3.3781,3.3781,3.3781,0,3.2932,3.2976,3.3046,3.3132,3.3192,3.3194,3.3262,3.3313,3.3389,3.3449,3.3515,3.3609,3.3687,3.3742,3.3821,3.3865,3.3871,3.3885,3.3883,3.3892,3.3799,3.3778,3.3879,3.3879,3.3879,3.3879,3.3879,3.3879,3.2998,3.3092,3.3118,3.3236,3.3279,3.3365,3.3404,3.3457,3.3505,3.361,3.3675,3.371,3.3769,3.3853,3.3924,3.3939,3.3968,3.3982,3.3996,3.3909,3.3899,3.3889,3.3869,3.3987,3.3988,3.4084,3.4085,3.4085]}]]